Location: Unspecified
(51.0950°N, 12.9690°E)
Time: 21:41:44
(UTC+00:00)

CSL-04 Rocket - Pass Details

Date: 28 October 2021
Orbit: 805 x 860 km, 98.9° (Epoch: 01 December)

Event Time Altitude Azimuth Distance (km) Brightness Sun altitude
Exits shadow 17:48:05 29° 124° (SE) 1,540 4.6 -19.2°
Maximum altitude 17:50:39 50° 66° (ENE) 1,095 3.9 -19.6°
Drops below altitude 10° 17:56:00 10° 353° (N) 2,506 6.3 -20.4°
Sets 17:58:26 0° 348° (NNW) 3,443 7.1 -20.8°
